Tefé Airport
SBTF : now visible

Airfield :











YOU CAN JOIN US ON...

 
LOGIN :

Register | Disclaimer

   EN    FR    IT 

 









Legend :    VFR   Marginal VFR   IFR   Intensive IFR   Very Intensive IFR
Visi :
Ceiling :
>= 8 km
>= 3000ft
5 to 8 km
1000 to 3000 ft
1500m to 5 km
500 to 1000 ft
800 to 1500m
200 to 500 ft
< 800m
< 200 ft
Symbols :   Thunderstorms  Fog  Heavy snow  Heavy precipitations  Wind > 20 kt






- Airport Elevation : 188 ft
- IATA code : TFF


SBTF - Tefé

CURRENT METAR :
  • 201900Z 35007KT 9999 FEW020 34/25 Q1008

EXPIRED METARs :
  • 201800Z 31005KT 9999 SCT020 24/25 Q1009
  • 201700Z 07007KT 9999 SCT020 33/26 Q1010

TAF COR TAF SBTF
Valid from the 20 at 18:00 until the 21 at 06:00 UTC


201433Z 2018/2106 06010KT 9999 SCT020 FEW030TCU TX33/2018Z TN31/2022Z
BECMG 2019/2021 12005KT RMK PHI
SBAZ FIR / South America



MET'MAP, your aeronautical weather chart ! - Copyright ORBIFLY December 2007 - Disclaimer

ORBIFLY MET'MAP TEAM :

Programming & Development : Alexandra Zaïnal
Concept & original design : Baudouin d'Aumeries
Assistance for programming : Marc-Olivier Méhu
Technical & hardware support : Manuel Goepfert

Contact : metmap@orbifly.com




SOURCES & CREDITS :

   NOAA       Earth
Advisory